Location: Newark
(52.3500°N, 175.9667°E)
Time: 06:37:57
(UTC+00:00)

S-56A Canister/Altair - Pass Details

Date: 21 April 2021
Orbit: 631 x 2501 km, 38.9° (Epoch: 12 May)

Event Time Altitude Azimuth Distance (km) Brightness Sun altitude
Rises 11:10:11 0° 223° (SW) 4,647 - -24.1°
Reaches altitude 10° 11:14:42 10° 207° (SSW) 3,282 - -24.3°
Maximum altitude 11:19:44 19° 167° (SSE) 2,287 - -24.5°
Drops below altitude 10° 11:23:45 10° 125° (SE) 2,538 - -24.7°
Sets 11:26:40 0° 106° (ESE) 3,266 - -24.8°
